STARLINK-11294 [DTC]

Last updated on Mon Oct 14 2024 00:02:03 GMT+0000 (Coordinated Universal Time)

1 61054U 24164E 24287.38424379 .00014109 00000+0 90000-4 0 9993 2 61054 53.1544 316.8964 0001356 61.5086 298.6071 15.76743237 4954
UTC large
Height (km)
Speed (km/s)
/
Latitude / Longitude
Inclination (degrees)
Orbital Period (minutes)
Azimuth
Elevation
Range (km)
Doppler Factor

Next 0 passes for location: London (51.5072 / 0.1276)

Sorry there are no passes over London.